Home > Weather > Brăila > Past weeks

Flag for Romania Past Weather in Brăila, Romania — Yesterday and Last 2 Weeks

Now
76 °F

Passing clouds.


Feels Like: 77 °F
Forecast: 61 / 83 °F
Wind: 2 mph from Northwest

Location: Galati

Current Time: Aug 26, 2016 at 9:51:03 PM

Latest Report: Aug 26, 2016 at 9:00 PM


Visibility: 13 mi

Pressure: 30.16 "Hg

Humidity: 35%

Dew Point: 46 °F

Location of BrăilaLocation

Past Weather in Brăila — Graph

°F

Brăila Temperature Yesterday

Maximum temperature yesterday: 82 °F (at 4:00 PM)
Minimum temperature yesterday: 64 °F (at 7:00 AM)
Average temperature yesterday: 74 °F

High & Low Weather Summary for the Past Weeks

 TemperatureHumidityPressure
High93 °F (Aug 22, 4:00 PM)98% (Aug 12, 4:00 AM)30.23 "Hg (Aug 12, 4:00 AM)
Low54 °F (Aug 14, 7:00 AM)28% (Aug 13, 7:00 PM)29.82 "Hg (Aug 18, 6:00 AM)
Average73 °F61%30.03 "Hg
* Reported Aug 11 8:00 PM — Aug 26 8:00 PM, Brăila, Weather by CustomWeather, © 2016

Note: Actual official high and low records may vary slightly from our data, if they occured in-between our weather recording intervals... More about our weather records

Advertising

Brăila Weather History for the Previous 24 Hours

Scroll right to see more
 ConditionsComfort  
Time TempWeatherWind HumidityBarometerVisibility
8:00 PM
Fri, Aug 26
78 °FPassing clouds.2 mph33%30.15 "Hg12 mi
7:00 PM79 °FPassing clouds.2 mph33%30.15 "Hg12 mi
6:00 PM81 °FScattered clouds.3 mph31%30.14 "Hg12 mi
5:00 PM80 °FScattered clouds.5 mph33%30.15 "Hg12 mi
4:00 PM82 °FScattered clouds.5 mph30%30.16 "Hg12 mi
3:00 PM82 °FScattered clouds.5 mph32%30.16 "Hg12 mi
2:00 PM80 °FScattered clouds.5 mph36%30.17 "Hg12 mi
1:00 PM80 °FScattered clouds.6 mph38%30.17 "Hg12 mi
12:00 PM77 °FPassing clouds.3 mph43%30.18 "Hg12 mi
11:00 AM74 °FPassing clouds.3 mph52%30.18 "Hg12 mi
10:00 AM71 °FPassing clouds.3 mph55%30.18 "Hg12 mi
9:00 AM67 °FPassing clouds.3 mph62%30.18 "Hg12 mi
8:00 AM65 °FScattered clouds.3 mph62%30.17 "Hg12 mi
7:00 AM62 °FPassing clouds.2 mph67%30.17 "Hg12 mi
6:00 AM64 °FClear.2 mph62%30.15 "Hg12 mi
5:00 AM65 °FClear.3 mph59%30.14 "Hg12 mi
4:00 AM66 °FPassing clouds.3 mph56%30.14 "Hg12 mi
3:00 AM67 °FPassing clouds.3 mph52%30.14 "Hg12 mi
2:00 AM68 °FClear.3 mph50%30.13 "Hg12 mi
1:00 AM69 °FClear.2 mph47%30.13 "Hg12 mi
12:00 AM71 °FClear.2 mph45%30.12 "Hg12 mi
11:00 PM
Thu, Aug 25
72 °FClear.3 mph42%30.13 "Hg12 mi
10:00 PM73 °FPassing clouds.3 mph40%30.12 "Hg12 mi
9:00 PM76 °FPassing clouds.3 mph35%30.10 "Hg12 mi
Weather by CustomWeather, © 2016

See weather overviewHow to use our weather pages